contact:dominique.lefevre@mio.osupytheas.fr, maurice.libes@osupytheas.fr, didier.mallarino@osupytheas.fr
Project:EMSO http://www.emso-fr.org/EMSO-France
Depth: 2436.0 m
Title:EMSO Ligure Ouest : Data MII capteur CSTAR
DateTime,Latitude,Longitude,Instrument_Serial,Reference_Counts,Signal_Counts,Corrected_Signal_raw_counts,Calculated_Beam_c_inverse_meters,Internal_thermistor_counts
DateTime,Latitude,Longitude,Instrument_Serial,Reference_Counts,Signal_Counts,Corrected_Signal_raw_counts,Calculated_Beam_c_inverse_meters,Internal_thermistor_counts
2023-10-03T00:01:43,42.805,6.029,CST-1368DR,4148,4476,11438,01.245,552
2023-10-03T00:04:45,42.805,6.029,CST-1368DR,4148,4474,11433,01.247,553
2023-10-03T00:07:46,42.805,6.029,CST-1368DR,4148,4474,11434,01.247,552
2023-10-03T00:10:48,42.805,6.029,CST-1368DR,4148,4473,11433,01.247,553
2023-10-03T00:13:50,42.805,6.029,CST-1368DR,4148,4474,11435,01.246,553
2023-10-03T00:16:51,42.805,6.029,CST-1368DR,4148,4474,11435,01.246,553
2023-10-03T00:19:53,42.805,6.029,CST-1368DR,4148,4475,11436,01.246,552
2023-10-03T00:22:54,42.805,6.029,CST-1368DR,4148,4475,11436,01.246,553
2023-10-03T00:25:56,42.805,6.029,CST-1368DR,4148,4475,11437,01.246,553
2023-10-03T00:28:57,42.805,6.029,CST-1368DR,4148,4475,11438,01.245,552
2023-10-03T00:31:59,42.805,6.029,CST-1368DR,4148,4476,11438,01.245,552
2023-10-03T00:35:01,42.805,6.029,CST-1368DR,4148,4474,11435,01.246,553
2023-10-03T00:38:02,42.805,6.029,CST-1368DR,4148,4474,11435,01.246,552
2023-10-03T00:41:04,42.805,6.029,CST-1368DR,4148,4474,11435,01.246,553
2023-10-03T00:44:05,42.805,6.029,CST-1368DR,4148,4474,11435,01.246,552
2023-10-03T00:47:07,42.805,6.029,CST-1368DR,4148,4475,11437,01.246,553
2023-10-03T00:50:08,42.805,6.029,CST-1368DR,4148,4474,11435,01.246,552
2023-10-03T00:53:10,42.805,6.029,CST-1368DR,4148,4473,11433,01.247,553
2023-10-03T00:56:12,42.805,6.029,CST-1368DR,4148,4474,11435,01.246,552
2023-10-03T00:59:13,42.805,6.029,CST-1368DR,4148,4473,11432,01.248,553
2023-10-03T01:02:15,42.805,6.029,CST-1368DR,4148,4473,11431,01.248,553
2023-10-03T01:05:16,42.805,6.029,CST-1368DR,4148,4474,11434,01.247,553
2023-10-03T01:08:18,42.805,6.029,CST-1368DR,4148,4474,11434,01.247,553
2023-10-03T01:11:20,42.805,6.029,CST-1368DR,4148,4474,11433,01.247,552
2023-10-03T01:14:21,42.805,6.029,CST-1368DR,4148,4474,11435,01.246,553
2023-10-03T01:17:23,42.805,6.029,CST-1368DR,4148,4474,11435,01.246,552
2023-10-03T01:20:24,42.805,6.029,CST-1368DR,4148,4474,11435,01.246,552
2023-10-03T01:23:26,42.805,6.029,CST-1368DR,4148,4475,11437,01.246,553
2023-10-03T01:26:27,42.805,6.029,CST-1368DR,4148,4475,11438,01.245,553
2023-10-03T01:29:29,42.805,6.029,CST-1368DR,4148,4476,11440,01.245,553
2023-10-03T01:32:31,42.805,6.029,CST-1368DR,4148,4475,11438,01.245,552
2023-10-03T01:35:32,42.805,6.029,CST-1368DR,4148,4480,11449,01.242,552
2023-10-03T01:38:34,42.805,6.029,CST-1368DR,4148,4480,11450,01.241,553
2023-10-03T01:41:35,42.805,6.029,CST-1368DR,4148,4480,11450,01.241,553
2023-10-03T01:44:37,42.805,6.029,CST-1368DR,4148,4481,11452,01.241,552
2023-10-03T01:47:38,42.805,6.029,CST-1368DR,4148,4481,11452,01.241,552
2023-10-03T01:50:40,42.805,6.029,CST-1368DR,4148,4481,11452,01.241,553
2023-10-03T01:53:42,42.805,6.029,CST-1368DR,4148,4481,11452,01.241,553
2023-10-03T01:56:43,42.805,6.029,CST-1368DR,4148,4481,11452,01.241,553
2023-10-03T01:59:45,42.805,6.029,CST-1368DR,4148,4481,11452,01.241,552
2023-10-03T02:02:46,42.805,6.029,CST-1368DR,4148,4481,11452,01.241,553
2023-10-03T02:05:48,42.805,6.029,CST-1368DR,4148,4480,11451,01.241,553
2023-10-03T02:08:49,42.805,6.029,CST-1368DR,4148,4481,11452,01.241,553
2023-10-03T02:11:51,42.805,6.029,CST-1368DR,4148,4481,11451,01.241,553
2023-10-03T02:14:53,42.805,6.029,CST-1368DR,4148,4481,11452,01.241,552
2023-10-03T02:17:54,42.805,6.029,CST-1368DR,4148,4481,11451,01.241,552
2023-10-03T02:20:56,42.805,6.029,CST-1368DR,4148,4481,11452,01.241,553
2023-10-03T02:23:57,42.805,6.029,CST-1368DR,4148,4481,11452,01.241,553
2023-10-03T02:26:59,42.805,6.029,CST-1368DR,4148,4480,11451,01.241,553
2023-10-03T02:30:01,42.805,6.029,CST-1368DR,4148,4480,11450,01.241,552
2023-10-03T02:33:02,42.805,6.029,CST-1368DR,4148,4481,11452,01.241,553
2023-10-03T02:36:04,42.805,6.029,CST-1368DR,4148,4481,11452,01.241,553
2023-10-03T02:39:05,42.805,6.029,CST-1368DR,4148,4481,11452,01.241,552
2023-10-03T02:42:07,42.805,6.029,CST-1368DR,4148,4477,11442,01.244,553
2023-10-03T02:45:08,42.805,6.029,CST-1368DR,4148,4481,11451,01.241,553
2023-10-03T02:48:10,42.805,6.029,CST-1368DR,4148,4481,11451,01.241,553
2023-10-03T02:51:12,42.805,6.029,CST-1368DR,4148,4481,11452,01.241,552
2023-10-03T02:54:13,42.805,6.029,CST-1368DR,4148,4480,11450,01.241,552
2023-10-03T02:57:15,42.805,6.029,CST-1368DR,4148,4480,11449,01.242,552
2023-10-03T03:00:16,42.805,6.029,CST-1368DR,4148,4480,11450,01.241,553
2023-10-03T03:03:18,42.805,6.029,CST-1368DR,4148,4480,11449,01.242,552
2023-10-03T03:06:19,42.805,6.029,CST-1368DR,4148,4480,11449,01.242,553
2023-10-03T03:09:21,42.805,6.029,CST-1368DR,4148,4478,11444,01.243,553
2023-10-03T03:12:23,42.805,6.029,CST-1368DR,4148,4479,11447,01.242,553
2023-10-03T03:15:24,42.805,6.029,CST-1368DR,4147,4479,11449,01.242,553
2023-10-03T03:18:26,42.805,6.029,CST-1368DR,4148,4479,11448,01.242,553
2023-10-03T03:21:27,42.805,6.029,CST-1368DR,4148,4480,11449,01.242,553
2023-10-03T03:24:29,42.805,6.029,CST-1368DR,4148,4479,11447,01.242,552
2023-10-03T03:27:31,42.805,6.029,CST-1368DR,4148,4479,11447,01.242,552
2023-10-03T03:30:32,42.805,6.029,CST-1368DR,4148,4479,11448,01.242,553
2023-10-03T03:33:34,42.805,6.029,CST-1368DR,4148,4480,11449,01.242,552
2023-10-03T03:36:35,42.805,6.029,CST-1368DR,4148,4479,11448,01.242,553
2023-10-03T03:39:37,42.805,6.029,CST-1368DR,4148,4479,11447,01.242,553
2023-10-03T03:42:38,42.805,6.029,CST-1368DR,4148,4480,11449,01.242,553
2023-10-03T03:45:40,42.805,6.029,CST-1368DR,4148,4480,11449,01.242,553
2023-10-03T03:48:42,42.805,6.029,CST-1368DR,4148,4479,11446,01.243,552
2023-10-03T03:51:43,42.805,6.029,CST-1368DR,4148,4480,11449,01.242,553
2023-10-03T03:54:45,42.805,6.029,CST-1368DR,4147,4480,11451,01.241,552
2023-10-03T03:57:46,42.805,6.029,CST-1368DR,4147,4479,11449,01.242,553
2023-10-03T04:00:48,42.805,6.029,CST-1368DR,4147,4479,11450,01.241,552
2023-10-03T04:03:49,42.805,6.029,CST-1368DR,4147,4479,11449,01.242,552
2023-10-03T04:06:51,42.805,6.029,CST-1368DR,4147,4477,11445,01.243,553
2023-10-03T04:09:53,42.805,6.029,CST-1368DR,4147,4478,11448,01.242,552
2023-10-03T04:12:54,42.805,6.029,CST-1368DR,4146,4476,11446,01.243,553
2023-10-03T04:15:56,42.805,6.029,CST-1368DR,4146,4478,11449,01.242,552
2023-10-03T04:18:57,42.805,6.029,CST-1368DR,4146,4476,11445,01.243,552
2023-10-03T04:21:59,42.805,6.029,CST-1368DR,4146,4477,11448,01.242,552
2023-10-03T04:25:00,42.805,6.029,CST-1368DR,4147,4479,11450,01.241,553
2023-10-03T04:28:02,42.805,6.029,CST-1368DR,4147,4478,11447,01.242,552
2023-10-03T04:31:04,42.805,6.029,CST-1368DR,4147,4478,11447,01.242,552
2023-10-03T04:34:05,42.805,6.029,CST-1368DR,4147,4479,11449,01.242,553
2023-10-03T04:37:07,42.805,6.029,CST-1368DR,4147,4478,11448,01.242,553
2023-10-03T04:40:08,42.805,6.029,CST-1368DR,4147,4478,11448,01.242,552
2023-10-03T04:43:10,42.805,6.029,CST-1368DR,4147,4477,11445,01.243,552
2023-10-03T04:46:12,42.805,6.029,CST-1368DR,4147,4480,11451,01.241,552
2023-10-03T04:49:13,42.805,6.029,CST-1368DR,4147,4478,11448,01.242,552
2023-10-03T04:52:15,42.805,6.029,CST-1368DR,4147,4476,11443,01.244,552
2023-10-03T04:55:16,42.805,6.029,CST-1368DR,4147,4478,11448,01.242,552
2023-10-03T04:58:18,42.805,6.029,CST-1368DR,4147,4477,11444,01.243,552
2023-10-03T05:01:19,42.805,6.029,CST-1368DR,4147,4478,11448,01.242,552
2023-10-03T05:04:21,42.805,6.029,CST-1368DR,4147,4478,11446,01.243,553
2023-10-03T05:07:23,42.805,6.029,CST-1368DR,4147,4479,11449,01.242,552
2023-10-03T05:10:24,42.805,6.029,CST-1368DR,4147,4479,11449,01.242,553
2023-10-03T05:13:26,42.805,6.029,CST-1368DR,4147,4478,11447,01.242,553
2023-10-03T05:16:27,42.805,6.029,CST-1368DR,4147,4473,11435,01.246,553
2023-10-03T05:19:29,42.805,6.029,CST-1368DR,4147,4479,11450,01.241,553
2023-10-03T05:22:30,42.805,6.029,CST-1368DR,4147,4477,11445,01.243,552
2023-10-03T05:25:32,42.805,6.029,CST-1368DR,4147,4477,11445,01.243,552
2023-10-03T05:28:34,42.805,6.029,CST-1368DR,4148,4479,11447,01.242,552
2023-10-03T05:31:35,42.805,6.029,CST-1368DR,4147,4478,11446,01.243,552
2023-10-03T05:34:37,42.805,6.029,CST-1368DR,4147,4476,11442,01.244,553
2023-10-03T05:37:38,42.805,6.029,CST-1368DR,4148,4479,11446,01.243,553
2023-10-03T05:40:40,42.805,6.029,CST-1368DR,4148,4478,11445,01.243,552
2023-10-03T05:43:42,42.805,6.029,CST-1368DR,4148,4477,11443,01.244,552
2023-10-03T05:46:43,42.805,6.029,CST-1368DR,4148,4477,11442,01.244,553
2023-10-03T05:49:45,42.805,6.029,CST-1368DR,4148,4480,11449,01.242,553
2023-10-03T05:52:46,42.805,6.029,CST-1368DR,4147,4479,11449,01.242,553
2023-10-03T05:55:48,42.805,6.029,CST-1368DR,4147,4478,11446,01.243,553
2023-10-03T05:58:49,42.805,6.029,CST-1368DR,4148,4479,11447,01.242,553
2023-10-03T06:01:51,42.805,6.029,CST-1368DR,4148,4479,11447,01.242,552
2023-10-03T06:04:53,42.805,6.029,CST-1368DR,4148,4479,11447,01.242,553
2023-10-03T06:07:54,42.805,6.029,CST-1368DR,4148,4479,11448,01.242,553
2023-10-03T06:10:56,42.805,6.029,CST-1368DR,4148,4479,11447,01.242,552
2023-10-03T06:13:57,42.805,6.029,CST-1368DR,4148,4479,11446,01.243,553
2023-10-03T06:16:59,42.805,6.029,CST-1368DR,4148,4477,11442,01.244,553
2023-10-03T06:20:00,42.805,6.029,CST-1368DR,4148,4479,11447,01.242,552
2023-10-03T06:23:02,42.805,6.029,CST-1368DR,4148,4479,11446,01.243,553
2023-10-03T06:26:04,42.805,6.029,CST-1368DR,4148,4478,11444,01.243,552
2023-10-03T06:29:05,42.805,6.029,CST-1368DR,4148,4479,11447,01.242,553
2023-10-03T06:32:10,42.805,6.029,CST-1368DR,4148,4476,11440,01.245,552
2023-10-03T06:35:11,42.805,6.029,CST-1368DR,4148,4478,11443,01.244,553
2023-10-03T06:38:13,42.805,6.029,CST-1368DR,4148,4476,11438,01.245,553
2023-10-03T06:41:15,42.805,6.029,CST-1368DR,4148,4477,11441,01.244,553
2023-10-03T06:44:16,42.805,6.029,CST-1368DR,4148,4475,11438,01.245,553
2023-10-03T06:47:18,42.805,6.029,CST-1368DR,4147,4475,11439,01.245,553
2023-10-03T06:50:19,42.805,6.029,CST-1368DR,4148,4475,11436,01.246,552
2023-10-03T06:53:21,42.805,6.029,CST-1368DR,4148,4474,11435,01.246,553
2023-10-03T06:56:23,42.805,6.029,CST-1368DR,4148,4474,11434,01.247,552
2023-10-03T06:59:24,42.805,6.029,CST-1368DR,4148,4472,11430,01.248,553
2023-10-03T07:02:26,42.805,6.029,CST-1368DR,4148,4474,11435,01.246,552
2023-10-03T07:05:27,42.805,6.029,CST-1368DR,4148,4474,11433,01.247,553
2023-10-03T07:08:29,42.805,6.029,CST-1368DR,4148,4474,11433,01.247,552
2023-10-03T07:11:30,42.805,6.029,CST-1368DR,4148,4473,11431,01.248,552
2023-10-03T07:14:32,42.805,6.029,CST-1368DR,4148,4474,11435,01.246,553
2023-10-03T07:17:34,42.805,6.029,CST-1368DR,4148,4474,11435,01.246,553
2023-10-03T07:20:35,42.805,6.029,CST-1368DR,4148,4473,11432,01.248,553
2023-10-03T07:23:37,42.805,6.029,CST-1368DR,4148,4474,11433,01.247,552
2023-10-03T07:26:38,42.805,6.029,CST-1368DR,4148,4479,11446,01.243,552
2023-10-03T07:29:40,42.805,6.029,CST-1368DR,4148,4477,11443,01.244,553
2023-10-03T07:32:41,42.805,6.029,CST-1368DR,4148,4477,11443,01.244,552
2023-10-03T07:35:43,42.805,6.029,CST-1368DR,4148,4477,11443,01.244,553
2023-10-03T07:38:45,42.805,6.029,CST-1368DR,4147,4477,11444,01.243,552
2023-10-03T07:41:46,42.805,6.029,CST-1368DR,4147,4474,11437,01.246,553
2023-10-03T07:44:48,42.805,6.029,CST-1368DR,4147,4474,11436,01.246,552
2023-10-03T07:47:49,42.805,6.029,CST-1368DR,4148,4474,11435,01.246,552
2023-10-03T07:50:51,42.805,6.029,CST-1368DR,4148,4475,11437,01.246,553
2023-10-03T07:53:53,42.805,6.029,CST-1368DR,4148,4474,11435,01.246,552
2023-10-03T07:56:54,42.805,6.029,CST-1368DR,4147,4472,11432,01.248,553
2023-10-03T07:59:56,42.805,6.029,CST-1368DR,4147,4473,11435,01.246,552
2023-10-03T08:02:57,42.805,6.029,CST-1368DR,4148,4472,11429,01.249,553
2023-10-03T08:05:59,42.805,6.029,CST-1368DR,4147,4474,11436,01.246,552
2023-10-03T08:09:00,42.805,6.029,CST-1368DR,4147,4472,11433,01.247,553
2023-10-03T08:12:02,42.805,6.029,CST-1368DR,4147,4472,11431,01.248,553
2023-10-03T08:15:04,42.805,6.029,CST-1368DR,4147,4472,11433,01.247,553
2023-10-03T08:18:05,42.805,6.029,CST-1368DR,4147,4473,11433,01.247,552
2023-10-03T08:21:07,42.805,6.029,CST-1368DR,4147,4473,11435,01.246,552
2023-10-03T08:24:08,42.805,6.029,CST-1368DR,4147,4472,11431,01.248,552
2023-10-03T08:27:10,42.805,6.029,CST-1368DR,4147,4472,11431,01.248,552
2023-10-03T08:30:13,42.805,6.029,CST-1368DR,4147,4472,11432,01.248,553
2023-10-03T08:33:14,42.805,6.029,CST-1368DR,4147,4472,11433,01.247,552
2023-10-03T08:36:16,42.805,6.029,CST-1368DR,4147,4472,11432,01.248,553
2023-10-03T08:39:18,42.805,6.029,CST-1368DR,4147,4472,11432,01.248,552
2023-10-03T08:42:19,42.805,6.029,CST-1368DR,4147,4471,11429,01.249,553
2023-10-03T08:45:21,42.805,6.029,CST-1368DR,4147,4472,11431,01.248,553
2023-10-03T08:48:22,42.805,6.029,CST-1368DR,4147,4470,11426,01.250,553
2023-10-03T08:51:24,42.805,6.029,CST-1368DR,4147,4469,11424,01.250,552
2023-10-03T08:54:25,42.805,6.029,CST-1368DR,4147,4472,11431,01.248,552
2023-10-03T08:57:27,42.805,6.029,CST-1368DR,4147,4471,11429,01.249,553
2023-10-03T09:00:29,42.805,6.029,CST-1368DR,4147,4471,11430,01.248,553
2023-10-03T09:03:30,42.805,6.029,CST-1368DR,4147,4472,11431,01.248,552
2023-10-03T09:06:32,42.805,6.029,CST-1368DR,4147,4473,11435,01.246,553
2023-10-03T09:09:33,42.805,6.029,CST-1368DR,4147,4473,11433,01.247,553
2023-10-03T09:12:35,42.805,6.029,CST-1368DR,4147,4472,11431,01.248,553
2023-10-03T09:15:36,42.805,6.029,CST-1368DR,4147,4472,11433,01.247,552
2023-10-03T09:18:38,42.805,6.029,CST-1368DR,4147,4471,11430,01.248,553
2023-10-03T09:21:40,42.805,6.029,CST-1368DR,4147,4472,11431,01.248,553
2023-10-03T09:24:41,42.805,6.029,CST-1368DR,4147,4472,11431,01.248,552
2023-10-03T09:27:43,42.805,6.029,CST-1368DR,4147,4472,11432,01.248,553
2023-10-03T09:30:44,42.805,6.029,CST-1368DR,4147,4471,11429,01.249,553
2023-10-03T09:33:46,42.805,6.029,CST-1368DR,4147,4471,11428,01.249,552
2023-10-03T09:36:48,42.805,6.029,CST-1368DR,4147,4472,11431,01.248,553
2023-10-03T09:39:49,42.805,6.029,CST-1368DR,4147,4471,11430,01.248,553
2023-10-03T09:42:51,42.805,6.029,CST-1368DR,4147,4470,11428,01.249,553
2023-10-03T09:45:52,42.805,6.029,CST-1368DR,4147,4469,11424,01.250,553
2023-10-03T09:48:54,42.805,6.029,CST-1368DR,4147,4471,11428,01.249,553
2023-10-03T09:51:55,42.805,6.029,CST-1368DR,4147,4470,11428,01.249,552
2023-10-03T09:54:57,42.805,6.029,CST-1368DR,4147,4470,11426,01.250,552
2023-10-03T09:57:59,42.805,6.029,CST-1368DR,4147,4470,11427,01.249,553
2023-10-03T10:01:00,42.805,6.029,CST-1368DR,4147,4470,11428,01.249,552
2023-10-03T10:04:02,42.805,6.029,CST-1368DR,4147,4467,11420,01.252,553
2023-10-03T10:07:03,42.805,6.029,CST-1368DR,4147,4470,11426,01.250,552
2023-10-03T10:10:05,42.805,6.029,CST-1368DR,4147,4469,11425,01.250,553
2023-10-03T10:13:06,42.805,6.029,CST-1368DR,4147,4469,11425,01.250,553
2023-10-03T10:16:08,42.805,6.029,CST-1368DR,4147,4471,11430,01.248,553
2023-10-03T10:19:10,42.805,6.029,CST-1368DR,4147,4471,11428,01.249,552
2023-10-03T10:22:11,42.805,6.029,CST-1368DR,4147,4471,11429,01.249,552
2023-10-03T10:25:13,42.805,6.029,CST-1368DR,4147,4471,11428,01.249,553
2023-10-03T10:28:14,42.805,6.029,CST-1368DR,4147,4471,11430,01.248,552
2023-10-03T10:31:16,42.805,6.029,CST-1368DR,4147,4471,11429,01.249,553
2023-10-03T10:34:17,42.805,6.029,CST-1368DR,4147,4470,11426,01.250,552
2023-10-03T10:37:19,42.805,6.029,CST-1368DR,4147,4470,11426,01.250,553
2023-10-03T10:40:21,42.805,6.029,CST-1368DR,4147,4470,11426,01.250,552
2023-10-03T10:43:22,42.805,6.029,CST-1368DR,4147,4470,11428,01.249,552
2023-10-03T10:46:24,42.805,6.029,CST-1368DR,4147,4471,11430,01.248,552
2023-10-03T10:49:25,42.805,6.029,CST-1368DR,4147,4471,11429,01.249,552
2023-10-03T10:52:27,42.805,6.029,CST-1368DR,4147,4471,11428,01.249,553
2023-10-03T10:55:29,42.805,6.029,CST-1368DR,4147,4472,11432,01.248,552
2023-10-03T10:58:30,42.805,6.029,CST-1368DR,4147,4470,11427,01.249,552
2023-10-03T11:01:32,42.805,6.029,CST-1368DR,4146,4469,11428,01.249,552
2023-10-03T11:04:33,42.805,6.029,CST-1368DR,4146,4470,11430,01.248,552
2023-10-03T11:07:35,42.805,6.029,CST-1368DR,4146,4471,11431,01.248,552
2023-10-03T11:10:36,42.805,6.029,CST-1368DR,4146,4465,11416,01.253,552
2023-10-03T11:13:38,42.805,6.029,CST-1368DR,4147,4470,11427,01.249,552
2023-10-03T11:16:40,42.805,6.029,CST-1368DR,4147,4472,11431,01.248,552
2023-10-03T11:19:41,42.805,6.029,CST-1368DR,4147,4470,11426,01.250,553
2023-10-03T11:22:43,42.805,6.029,CST-1368DR,4147,4470,11426,01.250,552
2023-10-03T11:25:44,42.805,6.029,CST-1368DR,4147,4468,11422,01.251,552
2023-10-03T11:28:46,42.805,6.029,CST-1368DR,4147,4469,11425,01.250,553
2023-10-03T11:31:47,42.805,6.029,CST-1368DR,4146,4469,11427,01.249,553
2023-10-03T11:34:49,42.805,6.029,CST-1368DR,4147,4469,11424,01.250,553
2023-10-03T11:37:51,42.805,6.029,CST-1368DR,4146,4468,11424,01.250,552
2023-10-03T11:40:52,42.805,6.029,CST-1368DR,4146,4470,11428,01.249,553
2023-10-03T11:43:54,42.805,6.029,CST-1368DR,4146,4470,11430,01.248,553
2023-10-03T11:46:55,42.805,6.029,CST-1368DR,4147,4470,11426,01.250,552
2023-10-03T11:49:57,42.805,6.029,CST-1368DR,4147,4470,11428,01.249,552
2023-10-03T11:52:58,42.805,6.029,CST-1368DR,4147,4471,11429,01.249,553
2023-10-03T11:56:00,42.805,6.029,CST-1368DR,4147,4470,11427,01.249,552
2023-10-03T11:59:02,42.805,6.029,CST-1368DR,4147,4470,11427,01.249,552
2023-10-03T12:02:03,42.805,6.029,CST-1368DR,4147,4470,11426,01.250,553
2023-10-03T12:05:05,42.805,6.029,CST-1368DR,4147,4469,11425,01.250,552
2023-10-03T12:08:06,42.805,6.029,CST-1368DR,4147,4470,11428,01.249,553
2023-10-03T12:11:08,42.805,6.029,CST-1368DR,4147,4469,11424,01.250,553
2023-10-03T12:14:10,42.805,6.029,CST-1368DR,4147,4471,11430,01.248,553
2023-10-03T12:17:11,42.805,6.029,CST-1368DR,4147,4470,11426,01.250,552
2023-10-03T12:20:13,42.805,6.029,CST-1368DR,4147,4470,11428,01.249,552
2023-10-03T12:23:14,42.805,6.029,CST-1368DR,4147,4470,11428,01.249,552
2023-10-03T12:26:16,42.805,6.029,CST-1368DR,4147,4470,11427,01.249,553
2023-10-03T12:29:17,42.805,6.029,CST-1368DR,4147,4471,11428,01.249,552
2023-10-03T12:32:19,42.805,6.029,CST-1368DR,4147,4471,11430,01.248,552
2023-10-03T12:35:21,42.805,6.029,CST-1368DR,4147,4471,11429,01.249,552
2023-10-03T12:38:22,42.805,6.029,CST-1368DR,4147,4470,11428,01.249,553
2023-10-03T12:41:24,42.805,6.029,CST-1368DR,4147,4470,11426,01.250,553
2023-10-03T12:44:25,42.805,6.029,CST-1368DR,4147,4471,11429,01.249,552
2023-10-03T12:47:27,42.805,6.029,CST-1368DR,4147,4470,11428,01.249,552
2023-10-03T12:50:29,42.805,6.029,CST-1368DR,4147,4471,11428,01.249,553
2023-10-03T12:53:30,42.805,6.029,CST-1368DR,4147,4470,11426,01.250,553
2023-10-03T12:56:32,42.805,6.029,CST-1368DR,4147,4467,11419,01.252,553
2023-10-03T12:59:33,42.805,6.029,CST-1368DR,4147,4470,11426,01.250,553
2023-10-03T13:02:35,42.805,6.029,CST-1368DR,4147,4469,11423,01.251,553
2023-10-03T13:05:36,42.805,6.029,CST-1368DR,4147,4467,11420,01.252,553
2023-10-03T13:08:38,42.805,6.029,CST-1368DR,4147,4470,11427,01.249,553
2023-10-03T13:11:40,42.805,6.029,CST-1368DR,4147,4470,11428,01.249,553
2023-10-03T13:14:41,42.805,6.029,CST-1368DR,4147,4469,11424,01.250,553
2023-10-03T13:17:43,42.805,6.029,CST-1368DR,4147,4470,11426,01.250,552
2023-10-03T13:20:44,42.805,6.029,CST-1368DR,4147,4470,11426,01.250,553
2023-10-03T13:23:46,42.805,6.029,CST-1368DR,4147,4470,11427,01.249,552
2023-10-03T13:26:47,42.805,6.029,CST-1368DR,4147,4470,11426,01.250,553
2023-10-03T13:29:49,42.805,6.029,CST-1368DR,4147,4470,11426,01.250,553
2023-10-03T13:32:51,42.805,6.029,CST-1368DR,4147,4469,11424,01.250,552
2023-10-03T13:35:52,42.805,6.029,CST-1368DR,4147,4471,11428,01.249,553
2023-10-03T13:38:54,42.805,6.029,CST-1368DR,4147,4470,11427,01.249,552
2023-10-03T13:41:55,42.805,6.029,CST-1368DR,4147,4468,11422,01.251,553
2023-10-03T13:44:57,42.805,6.029,CST-1368DR,4147,4470,11428,01.249,553
2023-10-03T13:47:59,42.805,6.029,CST-1368DR,4147,4469,11424,01.250,552
2023-10-03T13:51:00,42.805,6.029,CST-1368DR,4147,4466,11417,01.253,553
2023-10-03T13:54:02,42.805,6.029,CST-1368DR,4147,4470,11426,01.250,552
2023-10-03T13:57:03,42.805,6.029,CST-1368DR,4147,4468,11422,01.251,552
2023-10-03T14:00:05,42.805,6.029,CST-1368DR,4147,4470,11426,01.250,553
2023-10-03T14:03:06,42.805,6.029,CST-1368DR,4147,4466,11417,01.253,553
2023-10-03T14:06:08,42.805,6.029,CST-1368DR,4147,4469,11425,01.250,552
2023-10-03T14:09:10,42.805,6.029,CST-1368DR,4147,4468,11422,01.251,552
2023-10-03T14:12:11,42.805,6.029,CST-1368DR,4147,4470,11426,01.250,553
2023-10-03T14:15:13,42.805,6.029,CST-1368DR,4147,4467,11420,01.252,553
2023-10-03T14:18:14,42.805,6.029,CST-1368DR,4147,4470,11426,01.250,553
2023-10-03T14:21:16,42.805,6.029,CST-1368DR,4147,4471,11429,01.249,552
2023-10-03T14:24:17,42.805,6.029,CST-1368DR,4147,4468,11422,01.251,553
2023-10-03T14:27:19,42.805,6.029,CST-1368DR,4147,4470,11428,01.249,552
2023-10-03T14:30:21,42.805,6.029,CST-1368DR,4147,4470,11426,01.250,553
2023-10-03T14:33:22,42.805,6.029,CST-1368DR,4147,4469,11425,01.250,553
2023-10-03T14:36:24,42.805,6.029,CST-1368DR,4147,4470,11428,01.249,553
2023-10-03T14:39:25,42.805,6.029,CST-1368DR,4147,4471,11428,01.249,553
2023-10-03T14:42:27,42.805,6.029,CST-1368DR,4147,4470,11426,01.250,552
2023-10-03T14:45:29,42.805,6.029,CST-1368DR,4147,4470,11428,01.249,553
2023-10-03T14:48:30,42.805,6.029,CST-1368DR,4147,4470,11426,01.250,553
2023-10-03T14:51:32,42.805,6.029,CST-1368DR,4147,4467,11419,01.252,552
2023-10-03T14:54:33,42.805,6.029,CST-1368DR,4147,4470,11428,01.249,553
2023-10-03T14:57:35,42.805,6.029,CST-1368DR,4147,4465,11414,01.254,552
2023-10-03T15:00:36,42.805,6.029,CST-1368DR,4147,4469,11425,01.250,552
2023-10-03T15:03:38,42.805,6.029,CST-1368DR,4147,4469,11425,01.250,553
2023-10-03T15:06:40,42.805,6.029,CST-1368DR,4147,4470,11426,01.250,553
2023-10-03T15:09:41,42.805,6.029,CST-1368DR,4147,4470,11427,01.249,553
2023-10-03T15:12:43,42.805,6.029,CST-1368DR,4147,4469,11424,01.250,553
2023-10-03T15:15:44,42.805,6.029,CST-1368DR,4147,4470,11426,01.250,553
2023-10-03T15:18:46,42.805,6.029,CST-1368DR,4147,4469,11424,01.250,553
2023-10-03T15:21:47,42.805,6.029,CST-1368DR,4147,4470,11427,01.249,553
2023-10-03T15:24:49,42.805,6.029,CST-1368DR,4147,4468,11422,01.251,552
2023-10-03T15:27:51,42.805,6.029,CST-1368DR,4147,4470,11426,01.250,552
2023-10-03T15:30:52,42.805,6.029,CST-1368DR,4147,4470,11428,01.249,553
2023-10-03T15:33:54,42.805,6.029,CST-1368DR,4147,4470,11427,01.249,552
2023-10-03T15:36:55,42.805,6.029,CST-1368DR,4147,4469,11425,01.250,552
2023-10-03T15:39:57,42.805,6.029,CST-1368DR,4147,4468,11421,01.251,552
2023-10-03T15:42:59,42.805,6.029,CST-1368DR,4147,4470,11426,01.250,552
2023-10-03T15:46:00,42.805,6.029,CST-1368DR,4147,4470,11427,01.249,552
2023-10-03T15:49:02,42.805,6.029,CST-1368DR,4147,4469,11423,01.251,552
2023-10-03T15:52:03,42.805,6.029,CST-1368DR,4147,4470,11426,01.250,553
2023-10-03T15:55:05,42.805,6.029,CST-1368DR,4147,4469,11425,01.250,553
2023-10-03T15:58:06,42.805,6.029,CST-1368DR,4147,4470,11427,01.249,553
2023-10-03T16:01:08,42.805,6.029,CST-1368DR,4147,4469,11424,01.250,553
2023-10-03T16:04:10,42.805,6.029,CST-1368DR,4147,4470,11427,01.249,553
2023-10-03T16:07:11,42.805,6.029,CST-1368DR,4147,4470,11428,01.249,553
2023-10-03T16:10:13,42.805,6.029,CST-1368DR,4147,4470,11427,01.249,552
2023-10-03T16:13:14,42.805,6.029,CST-1368DR,4147,4470,11428,01.249,553
2023-10-03T16:16:16,42.805,6.029,CST-1368DR,4147,4470,11426,01.250,553
2023-10-03T16:19:17,42.805,6.029,CST-1368DR,4147,4471,11428,01.249,553
2023-10-03T16:22:19,42.805,6.029,CST-1368DR,4147,4471,11429,01.249,553
2023-10-03T16:25:21,42.805,6.029,CST-1368DR,4147,4468,11422,01.251,552
2023-10-03T16:28:22,42.805,6.029,CST-1368DR,4147,4470,11426,01.250,553
2023-10-03T16:31:26,42.805,6.029,CST-1368DR,4147,4470,11428,01.249,553
2023-10-03T16:34:28,42.805,6.029,CST-1368DR,4147,4471,11428,01.249,553
2023-10-03T16:37:30,42.805,6.029,CST-1368DR,4147,4470,11426,01.250,553